�������l�o���
Date,Time,MP-1(��Sv/h),MP-2(��Sv/h),MP-3(��Sv/h),MP-4(��Sv/h),MP-5(��Sv/h),MP-6(��Sv/h),MP-7(��Sv/h),MP-8(��Sv/h),����,����(m/s),���J
2020/02/06,00:00,0.693,1.012,0.658,1.260,0.880,0.401,0.705,0.669,�쐼,2.9,��
2020/02/06,00:10,0.693,1.012,0.659,1.259,0.878,0.401,0.703,0.669,�쐼,3.5,��
2020/02/06,00:20,0.692,1.014,0.657,1.257,0.880,0.401,0.704,0.671,�쐼,4.7,�L
2020/02/06,00:30,0.692,1.014,0.660,1.256,0.878,0.401,0.703,0.670,��쐼,4.4,�L
2020/02/06,00:40,0.691,1.014,0.658,1.260,0.881,0.402,0.705,0.669,���쐼,2.5,�L
2020/02/06,00:50,0.694,1.014,0.659,1.258,0.880,0.404,0.704,0.671,�k��,2.4,�L
2020/02/06,01:00,0.692,1.014,0.657,1.259,0.877,0.403,0.703,0.670,�k�k��,2.5,��
2020/02/06,01:10,0.695,1.013,0.657,1.259,0.880,0.401,0.705,0.669,�k��,2.4,��
2020/02/06,01:20,0.694,1.014,0.659,1.258,0.880,0.402,0.706,0.671,�k�k��,2.8,��
2020/02/06,01:30,0.693,1.013,0.656,1.257,0.878,0.403,0.705,0.670,�k,2.4,��
2020/02/06,01:40,0.695,1.013,0.658,1.259,0.880,0.402,0.702,0.669,�k,2.4,�L
2020/02/06,01:50,0.693,1.014,0.658,1.257,0.878,0.402,0.704,0.669,�k,2.8,�L
2020/02/06,02:00,0.692,1.014,0.658,1.258,0.880,0.404,0.705,0.669,�k,3.3,�L
2020/02/06,02:10,0.695,1.012,0.658,1.257,0.880,0.403,0.703,0.670,�k�k��,2.5,�L
2020/02/06,02:20,0.693,1.013,0.659,1.256,0.881,0.401,0.702,0.669,�k��,1.7,�L
2020/02/06,02:30,0.694,1.010,0.657,1.256,0.879,0.403,0.703,0.671,��,0.6,�L
2020/02/06,02:40,0.693,1.013,0.660,1.259,0.878,0.403,0.704,0.670,-,CALM,�L
2020/02/06,02:50,0.692,1.013,0.659,1.257,0.877,0.403,0.704,0.670,�k�k��,1.3,��
2020/02/06,03:00,0.692,1.011,0.656,1.258,0.878,0.403,0.705,0.669,�k��,1.6,��
2020/02/06,03:10,0.692,1.010,0.658,1.257,0.879,0.402,0.705,0.668,�k�k��,1.6,�L
2020/02/06,03:20,0.691,1.010,0.658,1.255,0.878,0.402,0.703,0.668,�k,3.0,��
2020/02/06,03:30,0.692,1.010,0.657,1.257,0.878,0.401,0.704,0.669,�k�k��,2.7,��
2020/02/06,03:40,0.692,1.009,0.658,1.256,0.878,0.401,0.705,0.669,�k�k��,2.1,��
2020/02/06,03:50,0.691,1.009,0.658,1.257,0.878,0.402,0.703,0.670,�k�k��,2.6,��
2020/02/06,04:00,0.692,1.013,0.657,1.257,0.878,0.402,0.703,0.671,�k�k��,3.3,�L
2020/02/06,04:10,0.690,1.010,0.655,1.257,0.878,0.404,0.704,0.668,�k�k��,3.9,��
2020/02/06,04:20,0.692,1.013,0.655,1.258,0.880,0.402,0.705,0.668,�k,3.5,�L
2020/02/06,04:30,0.692,1.007,0.656,1.255,0.879,0.402,0.704,0.669,�k,3.6,��
2020/02/06,04:40,0.692,1.011,0.657,1.255,0.878,0.402,0.704,0.669,�k�k��,3.5,��
2020/02/06,04:50,0.692,1.009,0.655,1.256,0.878,0.400,0.705,0.670,�k,2.8,��
2020/02/06,05:00,0.693,1.011,0.657,1.257,0.879,0.400,0.705,0.670,�k,2.9,��
2020/02/06,05:10,0.693,1.009,0.657,1.257,0.877,0.398,0.703,0.669,�k,2.6,��
2020/02/06,05:20,0.691,1.006,0.656,1.255,0.878,0.400,0.703,0.671,�k,3.9,��
2020/02/06,05:30,0.691,1.011,0.656,1.256,0.877,0.400,0.703,0.669,�k,2.9,��
2020/02/06,05:40,0.689,1.010,0.656,1.257,0.879,0.402,0.704,0.669,�k�k��,2.8,��
2020/02/06,05:50,0.691,1.009,0.657,1.256,0.878,0.401,0.703,0.668,�k�k��,3.1,��
2020/02/06,06:00,0.693,1.009,0.656,1.255,0.878,0.400,0.703,0.668,�k�k��,3.5,��
2020/02/06,06:10,0.690,1.008,0.656,1.257,0.877,0.401,0.703,0.669,�k�k��,4.0,��
2020/02/06,06:20,0.692,1.011,0.656,1.255,0.877,0.401,0.705,0.669,�k��,2.4,��
2020/02/06,06:30,0.691,1.010,0.654,1.255,0.878,0.401,0.704,0.669,�k��,3.0,��
2020/02/06,06:40,0.690,1.010,0.656,1.258,0.877,0.401,0.705,0.669,�k��,2.3,��
2020/02/06,06:50,0.689,1.008,0.655,1.254,0.876,0.399,0.704,0.669,�k��,4.3,��
2020/02/06,07:00,0.691,1.009,0.655,1.257,0.878,0.401,0.705,0.668,�k�k��,3.8,��
2020/02/06,07:10,0.690,1.010,0.655,1.255,0.876,0.399,0.705,0.669,�k�k��,3.6,��
2020/02/06,07:20,0.690,1.007,0.654,1.255,0.875,0.399,0.703,0.667,�k,4.6,��
2020/02/06,07:30,0.690,1.006,0.653,1.258,0.877,0.400,0.704,0.669,�k,4.3,��
2020/02/06,07:40,0.689,1.011,0.653,1.254,0.875,0.399,0.705,0.668,�k,4.2,��
2020/02/06,07:50,0.691,1.009,0.655,1.257,0.877,0.400,0.706,0.669,�k,4.9,��
2020/02/06,08:00,0.690,1.010,0.653,1.257,0.876,0.398,0.703,0.669,�k,3.8,��
2020/02/06,08:10,0.690,1.008,0.655,1.257,0.877,0.398,0.703,0.670,�k�k��,5.3,��
2020/02/06,08:20,0.689,1.010,0.655,1.255,0.877,0.399,0.704,0.668,�k,5.3,��
2020/02/06,08:30,0.690,1.010,0.653,1.256,0.875,0.398,0.705,0.670,�k�k��,4.6,��
2020/02/06,08:40,0.693,1.009,0.656,1.257,0.876,0.398,0.703,0.668,�k�k��,6.6,��
2020/02/06,08:50,0.693,1.007,0.654,1.256,0.875,0.398,0.704,0.670,�k�k��,8.0,��
2020/02/06,09:00,0.690,1.006,0.654,1.255,0.876,0.400,0.705,0.668,�k�k��,6.9,��
2020/02/06,09:10,0.692,1.008,0.654,1.257,0.878,0.399,0.704,0.669,�k,8.2,��
2020/02/06,09:20,0.692,1.008,0.654,1.258,0.876,0.399,0.704,0.670,�k�k��,8.3,��
2020/02/06,09:30,0.687,1.010,0.655,1.256,0.876,0.396,0.704,0.669,�k�k��,8.3,��
2020/02/06,09:40,0.687,1.007,0.655,1.257,0.877,0.395,0.704,0.668,�k��,9.4,��
2020/02/06,09:50,0.681,1.007,0.655,1.254,0.878,0.396,0.703,0.668,�k��,9.4,��
2020/02/06,10:00,0.673,1.006,0.656,1.256,0.877,0.397,0.703,0.669,�k��,6.9,��
2020/02/06,10:10,0.674,1.009,0.655,1.257,0.879,0.398,0.702,0.667,�k��,8.6,��
2020/02/06,10:20,0.677,1.006,0.655,1.255,0.878,0.398,0.702,0.669,�k��,7.4,��
2020/02/06,10:30,0.679,1.005,0.656,1.257,0.878,0.399,0.704,0.669,�k��,10.2,��
2020/02/06,10:40,0.678,1.009,0.654,1.258,0.879,0.399,0.703,0.670,���k��,6.3,��
2020/02/06,10:50,0.680,1.009,0.655,1.256,0.879,0.399,0.702,0.669,�k��,11.6,��
2020/02/06,11:00,0.682,1.008,0.658,1.260,0.878,0.398,0.702,0.667,�k��,8.2,��
2020/02/06,11:10,0.678,1.009,0.657,1.258,0.876,0.399,0.703,0.669,���k��,9.3,��
2020/02/06,11:20,0.682,1.010,0.655,1.258,0.879,0.401,0.702,0.668,�k��,10.4,��
2020/02/06,11:30,0.682,1.010,0.658,1.256,0.877,0.399,0.702,0.668,�k��,11.0,��
2020/02/06,11:40,0.684,1.011,0.655,1.258,0.878,0.398,0.701,0.669,�k��,9.1,��
2020/02/06,11:50,0.687,1.013,0.657,1.259,0.878,0.399,0.701,0.668,���k��,11.6,��
2020/02/06,12:00,0.687,1.013,0.655,1.257,0.879,0.399,0.701,0.668,���k��,10.4,��
2020/02/06,12:10,0.685,1.012,0.656,1.258,0.880,0.397,0.703,0.670,�k��,9.9,��
2020/02/06,12:20,0.688,1.014,0.654,1.259,0.878,0.398,0.702,0.667,�k��,7.4,��
2020/02/06,12:30,0.685,1.014,0.657,1.256,0.880,0.399,0.703,0.670,�k��,13.0,��
2020/02/06,12:40,0.689,1.011,0.657,1.259,0.880,0.398,0.702,0.669,�k��,13.0,��
2020/02/06,12:50,0.688,1.013,0.658,1.258,0.882,0.399,0.701,0.670,�k��,10.5,��
2020/02/06,13:00,0.687,1.014,0.656,1.256,0.880,0.399,0.705,0.669,�k�k��,10.5,��
2020/02/06,13:10,0.686,1.015,0.657,1.258,0.880,0.400,0.702,0.669,�k��,10.4,��
2020/02/06,13:20,0.685,1.013,0.657,1.259,0.879,0.399,0.704,0.669,�k��,13.0,��
2020/02/06,13:30,0.698,1.011,0.655,1.256,0.881,0.401,0.703,0.670,�k��,14.7,��
2020/02/06,13:40,0.702,1.012,0.660,1.259,0.880,0.400,0.703,0.669,���k��,11.6,��
2020/02/06,13:50,0.703,1.012,0.657,1.259,0.880,0.400,0.702,0.669,���k��,10.5,��
2020/02/06,14:00,0.703,1.015,0.657,1.257,0.881,0.400,0.702,0.668,�k��,10.8,��
2020/02/06,14:10,0.700,1.010,0.658,1.260,0.882,0.399,0.702,0.668,�k��,12.5,��
2020/02/06,14:20,0.701,1.012,0.658,1.259,0.882,0.401,0.703,0.669,�k��,11.2,��
2020/02/06,14:30,0.700,1.011,0.657,1.260,0.882,0.399,0.702,0.668,�k��,10.5,��
2020/02/06,14:40,0.702,1.013,0.657,1.259,0.883,0.399,0.701,0.669,�k��,11.5,��
2020/02/06,14:50,0.700,1.012,0.658,1.261,0.880,0.400,0.701,0.669,�k��,11.3,��
2020/02/06,15:00,0.700,1.015,0.658,1.260,0.881,0.400,0.701,0.671,�k��,13.0,��
2020/02/06,15:10,0.700,1.011,0.659,1.260,0.881,0.400,0.701,0.668,�k��,12.9,��
2020/02/06,15:20,0.701,1.012,0.659,1.259,0.879,0.400,0.703,0.669,�k��,10.5,��
2020/02/06,15:30,0.701,1.010,0.658,1.258,0.879,0.401,0.705,0.668,�k��,12.1,��
2020/02/06,15:40,0.700,1.013,0.657,1.257,0.882,0.400,0.703,0.670,�k��,10.2,��
2020/02/06,15:50,0.702,1.016,0.658,1.262,0.881,0.399,0.704,0.668,�k��,10.7,��
2020/02/06,16:00,0.700,1.014,0.659,1.261,0.881,0.401,0.702,0.667,�k��,13.3,��
2020/02/06,16:10,0.702,1.015,0.656,1.260,0.883,0.399,0.703,0.669,�k��,11.9,��
2020/02/06,16:20,0.701,1.017,0.657,1.260,0.882,0.398,0.704,0.670,�k��,11.5,��
2020/02/06,16:30,0.702,1.017,0.657,1.261,0.882,0.399,0.703,0.669,�k��,10.8,��
2020/02/06,16:40,0.700,1.014,0.657,1.261,0.880,0.399,0.703,0.669,�k��,9.4,��
2020/02/06,16:50,0.703,1.014,0.656,1.260,0.881,0.399,0.703,0.669,�k��,7.8,��
2020/02/06,17:00,0.702,1.013,0.655,1.260,0.878,0.400,0.704,0.669,�k��,7.4,��
2020/02/06,17:10,0.701,1.012,0.658,1.259,0.880,0.397,0.703,0.667,�k�k��,6.9,��
2020/02/06,17:20,0.701,1.013,0.657,1.260,0.881,0.398,0.702,0.669,�k�k��,7.2,��
2020/02/06,17:30,0.702,1.014,0.656,1.260,0.879,0.399,0.703,0.670,�k�k��,7.1,��
2020/02/06,17:40,0.700,1.015,0.655,1.259,0.879,0.397,0.702,0.668,�k��,8.0,��
2020/02/06,17:50,0.700,1.014,0.656,1.261,0.879,0.398,0.703,0.669,�k��,7.8,��
2020/02/06,18:00,0.699,1.016,0.657,1.260,0.880,0.398,0.702,0.668,�k��,7.7,��
2020/02/06,18:10,0.699,1.015,0.654,1.261,0.877,0.398,0.700,0.669,�k�k��,8.6,��
2020/02/06,18:20,0.699,1.013,0.659,1.262,0.876,0.397,0.701,0.668,�k��,7.2,��
2020/02/06,18:30,0.699,1.014,0.656,1.260,0.877,0.398,0.702,0.669,�k��,7.5,��
2020/02/06,18:40,0.698,1.015,0.655,1.261,0.876,0.399,0.702,0.668,�k��,7.5,��
2020/02/06,18:50,0.698,1.013,0.655,1.259,0.879,0.397,0.704,0.670,�k��,7.4,��
2020/02/06,19:00,0.699,1.015,0.657,1.262,0.879,0.399,0.703,0.668,�k��,5.8,��
2020/02/06,19:10,0.697,1.015,0.657,1.258,0.879,0.397,0.702,0.668,�k��,3.6,��
2020/02/06,19:20,0.699,1.017,0.655,1.257,0.879,0.398,0.702,0.670,���쐼,1.9,��
2020/02/06,19:30,0.698,1.016,0.658,1.258,0.880,0.399,0.703,0.668,��쐼,1.3,��
2020/02/06,19:40,0.699,1.013,0.658,1.259,0.882,0.399,0.701,0.668,�쐼,1.4,��
2020/02/06,19:50,0.700,1.017,0.658,1.258,0.880,0.398,0.704,0.666,��,1.5,��
2020/02/06,20:00,0.700,1.013,0.656,1.257,0.881,0.399,0.703,0.669,���쐼,2.3,��
2020/02/06,20:10,0.699,1.016,0.657,1.258,0.879,0.399,0.703,0.669,��,2.7,��
2020/02/06,20:20,0.698,1.017,0.656,1.259,0.881,0.398,0.700,0.668,���쐼,3.2,��
2020/02/06,20:30,0.698,1.017,0.656,1.259,0.880,0.399,0.702,0.667,���쐼,3.0,��
2020/02/06,20:40,0.698,1.014,0.657,1.259,0.881,0.398,0.703,0.670,���쐼,3.2,��
2020/02/06,20:50,0.697,1.015,0.658,1.258,0.880,0.399,0.702,0.667,��,3.0,��
2020/02/06,21:00,0.700,1.015,0.656,1.259,0.880,0.398,0.702,0.668,��,2.7,��
2020/02/06,21:10,0.697,1.013,0.657,1.257,0.880,0.398,0.702,0.669,��,1.6,��
2020/02/06,21:20,0.697,1.013,0.658,1.260,0.880,0.398,0.703,0.669,���쐼,2.0,��
2020/02/06,21:30,0.699,1.014,0.657,1.260,0.879,0.398,0.703,0.667,���쐼,3.8,��
2020/02/06,21:40,0.699,1.014,0.659,1.260,0.880,0.399,0.702,0.668,�쐼,3.4,��
2020/02/06,21:50,0.699,1.014,0.657,1.259,0.880,0.397,0.701,0.668,���쐼,3.8,��
2020/02/06,22:00,0.699,1.014,0.656,1.260,0.878,0.400,0.703,0.669,���쐼,4.3,��
2020/02/06,22:10,0.698,1.015,0.655,1.261,0.879,0.398,0.701,0.668,���쐼,4.6,��
2020/02/06,22:20,0.698,1.015,0.655,1.260,0.877,0.398,0.701,0.666,��,4.2,��
2020/02/06,22:30,0.699,1.010,0.655,1.257,0.881,0.399,0.703,0.668,��,3.8,��
2020/02/06,22:40,0.696,1.012,0.658,1.258,0.879,0.398,0.700,0.667,���쐼,3.2,��
2020/02/06,22:50,0.697,1.011,0.658,1.259,0.882,0.399,0.701,0.667,���쐼,4.5,��
2020/02/06,23:00,0.697,1.012,0.659,1.259,0.881,0.399,0.701,0.668,���쐼,6.3,��
2020/02/06,23:10,0.697,1.012,0.656,1.261,0.878,0.398,0.701,0.668,���쐼,6.3,��
2020/02/06,23:20,0.700,1.011,0.658,1.259,0.878,0.399,0.701,0.669,�쐼,4.9,��
2020/02/06,23:30,0.697,1.012,0.656,1.259,0.879,0.398,0.702,0.668,���쐼,5.2,��
2020/02/06,23:40,0.697,1.010,0.655,1.259,0.876,0.399,0.701,0.668,���쐼,6.3,��
2020/02/06,23:50,0.697,1.012,0.657,1.259,0.874,0.398,0.701,0.668,���쐼,6.3,��
